User: anonymous   Login
Location: Bletchingley
(51.2333°N, 0.1000°W)
Time: 12:03:48
(UTC+00:00)
Language:

Ariane Rocket - Orbit

View from above orbital plane
View from above orbital plane
View from above satellite
View from above satellite

Ground track
Ground track

The orbit data is extracted from the following two-line orbital elements,

1 23561U 95021B   20330.18352737  .00000065  00000-0  36457-4 0  9998
2 23561  98.7054  11.6860 0007798 132.5601 268.6303 14.37994067341896
Epoch (UTC): 25 November 2020 04:24:16
Eccentricity: 0.0007798
inclination: 98.7054°
perigee height: 759 km
apogee height: 771 km
right ascension of ascending node: 11.6860°
argument of perigee: 132.5601°
revolutions per day: 14.37994067
mean anomaly at epoch: 268.6303°
orbit number at epoch: 34189

The dashed part of the orbit path shows where the satellite is in the earth's shadow,  

DLR